Simultaneous Nadir Overpasses (SNOs) Predictions

Prediction of SNOs between METOP-B and NOAA-19 Satellite Orbit:

Table of predicted SNOs for the next 14.0 days since TLE Epoch: 3/5/2016
Index Date (METOP-B) Time (METOP-B) Lat,Lon (METOP-B) SZA (METOP-B ) Date (NOAA-19) Time (NOAA-19) Lat,Lon (NOAA-19) SZA (NOAA-19 ) Distance(km) Time Diff (sec)
1 03/11/2016 17:03:01 -76.32, 105.14 100.41 03/11/2016 17:01:54 -76.33, 101.94 100.35 84.18 67
2 03/11/2016 17:53:51 75.86, -89.09 79.14 03/11/2016 17:52:49 75.84, -89.02 79.12 3.29 62
3 03/11/2016 18:44:33 -75.84, 78.16 100.90 03/11/2016 18:43:45 -75.84, 78.24 100.90 2.08 48
4 03/11/2016 19:35:13 75.84,-114.51 79.09 03/11/2016 19:34:51 75.83,-114.50 79.08 1.13 22
5 03/11/2016 20:25:55 -75.82, 52.75 100.95 03/11/2016 20:25:47 -75.83, 52.76 100.94 1.39 8
6
